Find Kosmos-1084

NORAD ID: 11299 Int'l Des: 1979-024 Owner: GUKOSR Country: SU operational
LEOCIRCULAR

Live-Position

3D-Globus wird geladen...

Über Kosmos-1084

Beschreibung wird geladen...

Nächste Überflüge

Passes for default location (London). Set your location on the main map for personalized predictions.

Höhenverlauf

Loading altitude history...

Zweizeiliger Elementsatz

1 11299U 79024D 26107.27397743 -.00000019 00000-0 -22406-4 0 9992
2 11299 74.0361 40.2057 0002374 216.4534 297.7468 12.50492800149495
Epoch: 17. Apr. 2026 • Age: 10 hours

Aktueller Status

Höhe 1481.3 km
Geschwindigkeit 7.12 km/s
Subsatellitenpunkt -49.62°S, 80.68°W
Startdatum 15. März 1979
Alter 47 years
Typ other

Technische Details

Klassifizierung Payload
Masse 60.00 kg
Trockenmasse 60.00 kg
Gesamtmasse 60.00 kg
Länge 0.80 m
Durchmesser 0.80 m
Spannweite 0.80 m
Form Poly
Hersteller NPOPM
Bus-Typ Strela-1 11F625
Phasenstatus In Orbit
Besitzer/Staat GUKOSR/SU

Most Searched